Time,TemperatureF,DewpointF,PressureIn,WindDirection,WindDirectionDegrees,WindSpeedMPH,WindSpeedGustMPH,Humidity,HourlyPrecipIn,Conditions,Clouds,dailyrainin,SoftwareType,DateUTC
2016-07-29 00:02:00,76.7,68.9,29.84,SW,217,0.0,0.0,77,0.00,,,0.00,Wunderground v.1.15,2016-07-29 04:02:00,
2016-07-29 00:07:00,76.6,68.8,29.84,SW,217,0.0,0.0,77,0.00,,,0.00,Wunderground v.1.15,2016-07-29 04:07:00,
2016-07-29 00:12:00,76.5,69.1,29.84,SW,217,0.0,0.0,78,0.00,,,0.00,Wunderground v.1.15,2016-07-29 04:12:00,
2016-07-29 00:18:00,76.4,69.0,29.83,SW,217,0.0,1.0,78,0.00,,,0.00,Wunderground v.1.15,2016-07-29 04:18:00,
2016-07-29 00:24:00,76.4,69.0,29.83,SW,217,0.0,2.0,78,0.00,,,0.00,Wunderground v.1.15,2016-07-29 04:24:00,
2016-07-29 00:29:00,76.4,69.0,29.83,SW,217,0.0,2.0,78,0.00,,,0.00,Wunderground v.1.15,2016-07-29 04:29:00,
2016-07-29 00:36:00,76.4,69.0,29.83,SW,217,0.0,0.0,78,0.00,,,0.00,Wunderground v.1.15,2016-07-29 04:36:00,
2016-07-29 00:41:00,76.5,69.1,29.83,SW,217,0.0,0.0,78,0.00,,,0.00,Wunderground v.1.15,2016-07-29 04:41:00,
2016-07-29 00:46:00,76.4,69.0,29.83,SW,217,0.0,0.0,78,0.00,,,0.00,Wunderground v.1.15,2016-07-29 04:46:00,
2016-07-29 00:51:00,76.4,69.0,29.82,SW,217,0.0,0.0,78,0.00,,,0.00,Wunderground v.1.15,2016-07-29 04:51:00,
2016-07-29 00:57:00,76.3,68.9,29.82,SW,217,0.0,0.0,78,0.00,,,0.00,Wunderground v.1.15,2016-07-29 04:57:00,
2016-07-29 01:02:00,76.2,68.8,29.82,SW,217,0.0,0.0,78,0.00,,,0.00,Wunderground v.1.15,2016-07-29 05:02:00,
2016-07-29 01:08:00,76.1,68.7,29.83,SW,217,0.0,0.0,78,0.00,,,0.00,Wunderground v.1.15,2016-07-29 05:08:00,
2016-07-29 01:14:00,76.0,68.6,29.83,SW,217,0.0,0.0,78,0.00,,,0.00,Wunderground v.1.15,2016-07-29 05:14:00,
2016-07-29 01:19:00,75.9,68.5,29.83,SW,217,0.0,0.0,78,0.00,,,0.00,Wunderground v.1.15,2016-07-29 05:19:00,
2016-07-29 01:26:00,75.8,68.4,29.82,SW,217,0.0,0.0,78,0.00,,,0.00,Wunderground v.1.15,2016-07-29 05:26:00,
2016-07-29 01:32:00,75.7,68.4,29.83,SW,217,0.0,0.0,78,0.00,,,0.00,Wunderground v.1.15,2016-07-29 05:32:00,
2016-07-29 01:37:00,75.7,68.4,29.82,SW,217,0.0,0.0,78,0.00,,,0.00,Wunderground v.1.15,2016-07-29 05:37:00,
2016-07-29 01:42:00,75.6,68.3,29.83,SW,217,0.0,0.0,78,0.00,,,0.00,Wunderground v.1.15,2016-07-29 05:42:00,
2016-07-29 01:48:00,75.6,68.3,29.82,SW,217,0.0,0.0,78,0.00,,,0.00,Wunderground v.1.15,2016-07-29 05:48:00,
2016-07-29 01:54:00,75.5,68.2,29.82,SW,217,0.0,0.0,78,0.00,,,0.00,Wunderground v.1.15,2016-07-29 05:54:00,
2016-07-29 02:01:00,75.4,68.1,29.82,SW,217,0.0,0.0,78,0.00,,,0.00,Wunderground v.1.15,2016-07-29 06:01:00,
2016-07-29 02:06:00,75.3,68.0,29.83,SW,217,0.0,0.0,78,0.00,,,0.00,Wunderground v.1.15,2016-07-29 06:06:00,
2016-07-29 02:12:00,75.2,67.9,29.83,SW,217,0.0,0.0,78,0.00,,,0.00,Wunderground v.1.15,2016-07-29 06:12:00,
2016-07-29 02:18:00,75.2,67.9,29.83,SW,217,0.0,1.0,78,0.00,,,0.00,Wunderground v.1.15,2016-07-29 06:18:00,
2016-07-29 02:24:00,75.2,67.9,29.83,SW,217,1.0,2.0,78,0.00,,,0.00,Wunderground v.1.15,2016-07-29 06:24:00,
2016-07-29 02:29:00,75.1,67.8,29.83,SW,217,0.0,2.0,78,0.00,,,0.00,Wunderground v.1.15,2016-07-29 06:29:00,
2016-07-29 02:36:00,75.1,67.4,29.83,SW,217,0.0,2.0,77,0.00,,,0.00,Wunderground v.1.15,2016-07-29 06:36:00,
2016-07-29 02:42:00,75.1,67.4,29.82,SW,217,0.0,0.0,77,0.00,,,0.00,Wunderground v.1.15,2016-07-29 06:42:00,
2016-07-29 02:47:00,75.0,67.3,29.82,SW,217,0.0,0.0,77,0.00,,,0.00,Wunderground v.1.15,2016-07-29 06:47:00,
2016-07-29 02:53:00,74.9,67.2,29.82,SW,217,0.0,0.0,77,0.00,,,0.00,Wunderground v.1.15,2016-07-29 06:53:00,
2016-07-29 02:59:00,74.8,67.1,29.82,SW,217,0.0,0.0,77,0.00,,,0.00,Wunderground v.1.15,2016-07-29 06:59:00,
2016-07-29 03:06:00,74.6,66.9,29.82,SW,217,0.0,0.0,77,0.00,,,0.00,Wunderground v.1.15,2016-07-29 07:06:00,
2016-07-29 03:12:00,74.4,66.7,29.82,SW,217,0.0,0.0,77,0.00,,,0.00,Wunderground v.1.15,2016-07-29 07:12:00,
2016-07-29 03:17:00,74.3,66.6,29.82,SW,217,0.0,0.0,77,0.00,,,0.00,Wunderground v.1.15,2016-07-29 07:17:00,
2016-07-29 03:22:00,74.2,66.5,29.82,SW,217,0.0,0.0,77,0.00,,,0.01,Wunderground v.1.15,2016-07-29 07:22:00,
2016-07-29 03:27:00,74.1,66.0,29.82,SW,217,0.0,0.0,76,0.00,,,0.01,Wunderground v.1.15,2016-07-29 07:27:00,
2016-07-29 03:32:00,74.0,66.0,29.82,SW,217,0.0,0.0,76,0.00,,,0.01,Wunderground v.1.15,2016-07-29 07:32:00,
2016-07-29 03:38:00,73.8,65.8,29.81,SW,217,0.0,0.0,76,0.00,,,0.01,Wunderground v.1.15,2016-07-29 07:38:00,
2016-07-29 03:41:00,73.7,65.7,29.81,SW,217,0.0,0.0,76,0.00,,,0.01,Wunderground v.1.15,2016-07-29 07:41:00,
2016-07-29 03:47:00,73.6,65.6,29.81,SW,217,0.0,0.0,76,0.00,,,0.01,Wunderground v.1.15,2016-07-29 07:47:00,
2016-07-29 03:53:00,73.4,65.4,29.81,SW,217,0.0,0.0,76,0.00,,,0.01,Wunderground v.1.15,2016-07-29 07:53:00,
2016-07-29 03:58:00,73.3,65.3,29.82,SW,217,0.0,0.0,76,0.00,,,0.02,Wunderground v.1.15,2016-07-29 07:58:00,
2016-07-29 04:04:00,73.1,65.1,29.82,SW,217,0.0,0.0,76,0.00,,,0.02,Wunderground v.1.15,2016-07-29 08:04:00,
2016-07-29 04:09:00,73.1,65.1,29.82,SW,217,0.0,1.0,76,0.00,,,0.02,Wunderground v.1.15,2016-07-29 08:09:00,
2016-07-29 04:16:00,73.0,65.0,29.82,SW,217,0.0,0.0,76,0.00,,,0.02,Wunderground v.1.15,2016-07-29 08:16:00,
2016-07-29 04:22:00,72.9,64.9,29.82,SW,217,0.0,0.0,76,0.00,,,0.03,Wunderground v.1.15,2016-07-29 08:22:00,
2016-07-29 04:27:00,72.8,64.8,29.82,SW,217,1.0,1.0,76,0.00,,,0.03,Wunderground v.1.15,2016-07-29 08:27:00,
2016-07-29 04:32:00,72.7,64.7,29.82,SW,217,1.0,1.0,76,0.00,,,0.03,Wunderground v.1.15,2016-07-29 08:32:00,
2016-07-29 04:38:00,72.6,64.6,29.82,SW,217,1.0,2.0,76,0.00,,,0.03,Wunderground v.1.15,2016-07-29 08:38:00,
2016-07-29 04:44:00,72.4,64.4,29.83,SW,217,1.0,3.0,76,0.00,,,0.04,Wunderground v.1.15,2016-07-29 08:44:00,
2016-07-29 04:51:00,72.3,64.3,29.82,SW,217,1.0,1.0,76,0.00,,,0.04,Wunderground v.1.15,2016-07-29 08:51:00,
2016-07-29 04:57:00,72.2,64.2,29.82,SW,217,0.0,1.0,76,0.00,,,0.04,Wunderground v.1.15,2016-07-29 08:57:00,
2016-07-29 05:02:00,72.0,64.0,29.82,SW,217,0.0,1.0,76,0.00,,,0.04,Wunderground v.1.15,2016-07-29 09:02:00,
2016-07-29 05:07:00,71.9,63.9,29.82,SW,217,0.0,1.0,76,0.00,,,0.05,Wunderground v.1.15,2016-07-29 09:07:00,
2016-07-29 05:12:00,71.8,63.8,29.82,SW,217,1.0,1.0,76,0.00,,,0.05,Wunderground v.1.15,2016-07-29 09:12:00,
2016-07-29 05:17:00,71.8,63.8,29.82,SW,217,1.0,1.0,76,0.00,,,0.05,Wunderground v.1.15,2016-07-29 09:17:00,
2016-07-29 05:22:00,71.7,63.7,29.82,SW,217,1.0,1.0,76,0.00,,,0.05,Wunderground v.1.15,2016-07-29 09:22:00,
2016-07-29 05:27:00,71.6,63.6,29.82,SW,217,1.0,2.0,76,0.00,,,0.05,Wunderground v.1.15,2016-07-29 09:27:00,
2016-07-29 05:33:00,71.4,63.4,29.83,SW,217,0.0,0.0,76,0.00,,,0.06,Wunderground v.1.15,2016-07-29 09:33:00,
2016-07-29 05:38:00,71.3,63.3,29.82,SW,217,0.0,0.0,76,0.00,,,0.06,Wunderground v.1.15,2016-07-29 09:38:00,
2016-07-29 05:44:00,71.0,63.1,29.82,SW,217,0.0,1.0,76,0.04,,,0.07,Wunderground v.1.15,2016-07-29 09:44:00,
2016-07-29 05:49:00,70.9,63.0,29.83,SW,217,0.0,1.0,76,0.04,,,0.07,Wunderground v.1.15,2016-07-29 09:49:00,
2016-07-29 05:56:00,70.9,63.0,29.83,SW,217,1.0,1.0,76,0.07,,,0.08,Wunderground v.1.15,2016-07-29 09:56:00,
2016-07-29 06:01:00,70.8,62.9,29.83,SW,217,1.0,1.0,76,0.06,,,0.08,Wunderground v.1.15,2016-07-29 10:01:00,
2016-07-29 06:06:00,70.8,62.9,29.83,SW,217,0.0,1.0,76,0.06,,,0.09,Wunderground v.1.15,2016-07-29 10:06:00,
2016-07-29 06:12:00,70.7,62.8,29.83,SW,217,0.0,1.0,76,0.06,,,0.09,Wunderground v.1.15,2016-07-29 10:12:00,
2016-07-29 06:18:00,70.6,62.7,29.83,SW,217,0.0,1.0,76,0.05,,,0.10,Wunderground v.1.15,2016-07-29 10:18:00,
2016-07-29 06:24:00,70.6,62.7,29.83,SW,217,0.0,1.0,76,0.05,,,0.10,Wunderground v.1.15,2016-07-29 10:24:00,
2016-07-29 06:31:00,70.6,62.7,29.83,SW,217,0.0,0.0,76,0.00,,,0.10,Wunderground v.1.15,2016-07-29 10:31:00,
2016-07-29 06:37:00,70.6,62.7,29.83,SW,217,0.0,1.0,76,0.00,,,0.10,Wunderground v.1.15,2016-07-29 10:37:00,
2016-07-29 06:42:00,70.6,62.7,29.83,SW,217,0.0,0.0,76,0.00,,,0.11,Wunderground v.1.15,2016-07-29 10:42:00,
2016-07-29 06:47:00,70.5,62.6,29.83,SW,217,0.0,0.0,76,0.00,,,0.11,Wunderground v.1.15,2016-07-29 10:47:00,
2016-07-29 06:53:00,70.4,62.5,29.82,SW,217,0.0,1.0,76,0.00,,,0.11,Wunderground v.1.15,2016-07-29 10:53:00,
2016-07-29 06:58:00,70.4,62.5,29.82,SW,217,0.0,1.0,76,0.00,,,0.11,Wunderground v.1.15,2016-07-29 10:58:00,
2016-07-29 07:04:00,70.4,62.5,29.82,SW,217,0.0,1.0,76,0.00,,,0.11,Wunderground v.1.15,2016-07-29 11:04:00,
2016-07-29 07:09:00,70.5,62.6,29.82,SW,217,0.0,1.0,76,0.00,,,0.11,Wunderground v.1.15,2016-07-29 11:09:00,
2016-07-29 07:16:00,70.5,62.6,29.82,SW,217,0.0,1.0,76,0.00,,,0.11,Wunderground v.1.15,2016-07-29 11:16:00,
2016-07-29 07:21:00,70.3,62.4,29.82,SW,217,0.0,0.0,76,0.00,,,0.11,Wunderground v.1.15,2016-07-29 11:21:00,
2016-07-29 07:27:00,70.2,62.3,29.83,SW,217,0.0,2.0,76,0.00,,,0.11,Wunderground v.1.15,2016-07-29 11:27:00,
2016-07-29 07:33:00,70.2,62.3,29.83,SW,217,0.0,0.0,76,0.00,,,0.11,Wunderground v.1.15,2016-07-29 11:33:00,
2016-07-29 07:39:00,70.3,62.4,29.83,SW,217,0.0,0.0,76,0.00,,,0.11,Wunderground v.1.15,2016-07-29 11:39:00,
2016-07-29 07:46:00,70.3,62.4,29.82,SW,217,0.0,1.0,76,0.00,,,0.12,Wunderground v.1.15,2016-07-29 11:46:00,
2016-07-29 07:52:00,70.3,62.4,29.83,SW,217,0.0,0.0,76,0.00,,,0.12,Wunderground v.1.15,2016-07-29 11:52:00,
2016-07-29 07:57:00,70.3,62.4,29.83,SW,217,1.0,1.0,76,0.00,,,0.12,Wunderground v.1.15,2016-07-29 11:57:00,
2016-07-29 08:03:00,70.4,62.5,29.83,SW,217,1.0,1.0,76,0.00,,,0.12,Wunderground v.1.15,2016-07-29 12:03:00,
2016-07-29 08:08:00,70.5,62.6,29.83,SW,217,0.0,1.0,76,0.00,,,0.12,Wunderground v.1.15,2016-07-29 12:08:00,
2016-07-29 08:13:00,70.6,62.7,29.83,SW,217,0.0,0.0,76,0.00,,,0.12,Wunderground v.1.15,2016-07-29 12:13:00,
2016-07-29 08:18:00,70.6,62.7,29.83,SW,217,0.0,2.0,76,0.00,,,0.13,Wunderground v.1.15,2016-07-29 12:18:00,
2016-07-29 08:24:00,70.7,62.8,29.83,SW,217,0.0,0.0,76,0.00,,,0.13,Wunderground v.1.15,2016-07-29 12:24:00,
2016-07-29 08:29:00,70.8,62.9,29.83,SW,217,0.0,0.0,76,0.00,,,0.13,Wunderground v.1.15,2016-07-29 12:29:00,
2016-07-29 08:34:00,70.9,63.0,29.83,SW,217,0.0,0.0,76,0.04,,,0.14,Wunderground v.1.15,2016-07-29 12:34:00,
2016-07-29 08:41:00,71.1,63.1,29.83,SW,217,0.0,0.0,76,0.07,,,0.15,Wunderground v.1.15,2016-07-29 12:41:00,
2016-07-29 08:46:00,71.3,63.3,29.83,SW,217,0.0,0.0,76,0.07,,,0.15,Wunderground v.1.15,2016-07-29 12:46:00,
2016-07-29 08:52:00,71.3,63.3,29.83,SW,217,0.0,0.0,76,0.04,,,0.15,Wunderground v.1.15,2016-07-29 12:52:00,
2016-07-29 08:57:00,71.3,63.3,29.84,SW,217,0.0,0.0,76,0.00,,,0.15,Wunderground v.1.15,2016-07-29 12:57:00,
2016-07-29 09:03:00,71.4,63.4,29.84,SW,217,0.0,0.0,76,0.00,,,0.15,Wunderground v.1.15,2016-07-29 13:03:00,
2016-07-29 09:09:00,71.4,63.4,29.84,SW,217,0.0,0.0,76,0.00,,,0.16,Wunderground v.1.15,2016-07-29 13:09:00,
2016-07-29 09:14:00,71.6,63.6,29.84,SW,217,0.0,0.0,76,0.00,,,0.16,Wunderground v.1.15,2016-07-29 13:14:00,
2016-07-29 09:19:00,71.8,63.8,29.85,SW,217,0.0,0.0,76,0.00,,,0.16,Wunderground v.1.15,2016-07-29 13:19:00,
2016-07-29 09:26:00,71.8,63.8,29.85,SW,217,0.0,0.0,76,0.04,,,0.17,Wunderground v.1.15,2016-07-29 13:26:00,
2016-07-29 09:32:00,71.8,63.8,29.85,SW,217,0.0,0.0,76,0.04,,,0.17,Wunderground v.1.15,2016-07-29 13:32:00,
2016-07-29 09:38:00,71.7,63.7,29.84,SW,217,0.0,0.0,76,0.04,,,0.17,Wunderground v.1.15,2016-07-29 13:38:00,
2016-07-29 09:43:00,71.5,63.5,29.84,SW,217,0.0,0.0,76,0.00,,,0.18,Wunderground v.1.15,2016-07-29 13:43:00,
2016-07-29 09:49:00,71.4,63.4,29.83,SW,217,0.0,0.0,76,0.00,,,0.18,Wunderground v.1.15,2016-07-29 13:49:00,
2016-07-29 09:54:00,71.3,63.3,29.84,SW,217,0.0,1.0,76,0.00,,,0.18,Wunderground v.1.15,2016-07-29 13:54:00,
2016-07-29 10:01:00,71.3,63.3,29.84,SW,217,0.0,0.0,76,0.00,,,0.19,Wunderground v.1.15,2016-07-29 14:01:00,
2016-07-29 10:06:00,71.2,63.2,29.84,SW,217,0.0,1.0,76,0.11,,,0.20,Wunderground v.1.15,2016-07-29 14:06:00,
2016-07-29 10:12:00,71.3,63.3,29.85,SW,217,0.0,1.0,76,0.09,,,0.20,Wunderground v.1.15,2016-07-29 14:12:00,
2016-07-29 10:18:00,71.3,63.3,29.85,SW,217,0.0,1.0,76,0.07,,,0.21,Wunderground v.1.15,2016-07-29 14:18:00,
2016-07-29 10:24:00,71.3,63.3,29.85,SW,217,0.0,0.0,76,0.06,,,0.21,Wunderground v.1.15,2016-07-29 14:24:00,
2016-07-29 10:29:00,71.3,63.3,29.85,SW,217,0.0,1.0,76,0.04,,,0.21,Wunderground v.1.15,2016-07-29 14:29:00,
2016-07-29 10:36:00,71.3,63.3,29.85,SW,217,0.0,1.0,76,0.00,,,0.21,Wunderground v.1.15,2016-07-29 14:36:00,